LFSB

Basel/Mulhouse/Freiburg

Airport
ICAO code
LFSB
Summary
ICAO Region
EUR
ICAO Territory
Location

Saint-Louis, Alsace,

Coordinates
47° 35' 24" N , 7° 31' 45" E
KCC
Metar
Observation
LFSB 091930Z AUTO 30003KT 4700 BR BKN004 OVC008 M00/M00 Q1004 TEMPO 1200
Station
Bale-Mulhouse
Date/Time
2022-12-09 19:30:00
Wind direction
300°
Wind speed
03 kts
Lowest cloud amount
broken clouds
Temperature
-0°C
Dew point
-0°C
Humidity
100%
QNH
1004 hPa
Weather condition
n/a

Description

EuroAirport Basel-Mulhouse-Freiburg is an international airport 6 km northwest of Basel (Switzerland), 22 km southeast of Mulhouse (France), and 70 km south of Freiburg (Germany). It is located in France, on the administrative territory of the commune of Saint-Louis near the Swiss and German borders.

Climatology

Temperate Marine climate/Oceanic climate (Köppen climate classification Cfb). Moderately cool summer and comparatively warm winter. Prevailing south-westerly winds from the Atlantic Ocean.

Runways

Designator Length Width Surface Rops
8/26 1819 60 CON Yes/Yes
15/33 3900 60 CON Yes/Yes

SKYbrary Partners:

Safety knowledge contributed by: